DAL1161 KSLC-KLAX

Flight info

Callsign DAL1161
Flight time 1h 29m
Altitude 34000
Route ZIONZ1 EHK LAKRR Q73 HAKMN ANJLL4
Aircraft A321/M-SDE3FGHIRWY/LB1

Departure

Time 2026-04-21 02:53
Airport Salt Lake City International Airport (KSLC)

Arrival

Time 2026-04-21 04:22
Airport Los Angeles International Airport (KLAX)
Time Latitude Longitude Altitude Speed Heading
2026-04-21 02:35 40.78603 -111.98946 4234 ft 0 kts 180°
2026-04-21 02:43 40.78608 -111.98946 4233 ft 3 kts 180°
2026-04-21 02:43 40.78627 -111.98946 4232 ft 3 kts 180°
2026-04-21 02:43 40.78646 -111.98947 4232 ft 3 kts 160°
2026-04-21 02:43 40.78663 -111.98959 4233 ft 3 kts 129°
2026-04-21 02:44 40.78673 -111.98981 4232 ft 3 kts 99°
2026-04-21 02:44 40.78673 -111.99002 4232 ft 0 kts 74°
2026-04-21 02:45 40.78682 -111.98946 4233 ft 12 kts 83°
2026-04-21 02:46 40.78689 -111.98824 4233 ft 13 kts 86°
2026-04-21 02:46 40.78704 -111.98716 4233 ft 13 kts 66°
2026-04-21 02:46 40.78762 -111.98579 4232 ft 18 kts 66°
2026-04-21 02:46 40.78780 -111.98436 4234 ft 14 kts 87°
2026-04-21 02:47 40.78785 -111.98307 4233 ft 13 kts 86°
2026-04-21 02:47 40.78791 -111.98157 4234 ft 20 kts 88°
2026-04-21 02:47 40.78800 -111.97978 4237 ft 18 kts 86°
2026-04-21 02:47 40.78806 -111.97831 4238 ft 15 kts 88°
2026-04-21 02:48 40.78860 -111.97749 4238 ft 12 kts 354°
2026-04-21 02:48 40.78934 -111.97777 4239 ft 13 kts 344°
2026-04-21 02:48 40.79072 -111.97814 4237 ft 27 kts 352°
2026-04-21 02:48 40.79260 -111.97836 4234 ft 28 kts 355°
2026-04-21 02:49 40.79449 -111.97859 4232 ft 27 kts 354°
2026-04-21 02:49 40.79626 -111.97878 4232 ft 24 kts 355°
2026-04-21 02:49 40.79789 -111.97896 4233 ft 22 kts 355°
2026-04-21 02:49 40.79927 -111.97911 4238 ft 19 kts 356°
2026-04-21 02:50 40.80070 -111.97928 4239 ft 23 kts 354°
2026-04-21 02:50 40.80237 -111.97958 4241 ft 25 kts 348°
2026-04-21 02:50 40.80404 -111.97987 4240 ft 24 kts 356°
2026-04-21 02:50 40.80569 -111.98006 4237 ft 23 kts 355°
2026-04-21 02:51 40.80715 -111.98002 4237 ft 16 kts 28°
2026-04-21 02:51 40.80745 -111.97875 4236 ft 15 kts 88°
2026-04-21 02:51 40.80740 -111.97745 4235 ft 14 kts 109°
2026-04-21 02:51 40.80669 -111.97685 4235 ft 14 kts 173°
2026-04-21 02:52 40.80490 -111.97666 4241 ft 52 kts 175°
2026-04-21 02:52 40.79916 -111.97596 4237 ft 112 kts 175°
2026-04-21 02:52 40.78966 -111.97487 4237 ft 159 kts 175°
2026-04-21 02:52 40.77746 -111.97339 4379 ft 184 kts 174°
2026-04-21 02:53 40.76499 -111.97119 5107 ft 179 kts 171°
2026-04-21 02:53 40.75277 -111.96836 5753 ft 178 kts 171°
2026-04-21 02:53 40.74065 -111.96534 6201 ft 177 kts 169°
2026-04-21 02:53 40.72806 -111.96226 6276 ft 193 kts 171°
2026-04-21 02:54 40.71433 -111.95911 6379 ft 206 kts 171°
2026-04-21 02:54 40.69981 -111.95583 6539 ft 217 kts 171°
2026-04-21 02:54 40.68455 -111.95259 6682 ft 226 kts 176°
2026-04-21 02:54 40.66841 -111.95174 6769 ft 243 kts 179°
2026-04-21 02:55 40.65086 -111.95110 7034 ft 256 kts 179°
2026-04-21 02:55 40.63304 -111.95056 7630 ft 258 kts 180°
2026-04-21 02:55 40.61494 -111.95008 8188 ft 262 kts 180°
2026-04-21 02:55 40.59655 -111.94958 8777 ft 265 kts 180°
2026-04-21 02:56 40.57809 -111.94905 9394 ft 267 kts 180°
2026-04-21 02:56 40.54074 -111.94788 10594 ft 270 kts 180°
2026-04-21 02:56 40.52192 -111.94727 11183 ft 272 kts 180°
2026-04-21 02:57 40.50289 -111.94663 11777 ft 274 kts 180°
2026-04-21 02:57 40.48350 -111.94599 12120 ft 288 kts 180°
2026-04-21 02:57 40.46271 -111.94532 12246 ft 308 kts 180°
2026-04-21 02:57 40.44067 -111.94460 12368 ft 327 kts 180°
2026-04-21 02:58 40.41729 -111.94381 12657 ft 340 kts 180°
2026-04-21 02:58 40.39443 -111.94302 13166 ft 345 kts 180°
2026-04-21 02:58 40.37036 -111.94221 13760 ft 348 kts 180°
2026-04-21 02:58 40.34603 -111.94140 14307 ft 351 kts 180°
2026-04-21 02:59 40.32189 -111.94060 14845 ft 353 kts 180°
2026-04-21 02:59 40.29716 -111.93977 15379 ft 357 kts 180°
2026-04-21 02:59 40.27227 -111.93906 15910 ft 359 kts 182°
2026-04-21 02:59 40.24731 -111.94202 16447 ft 361 kts 188°
2026-04-21 03:00 40.22229 -111.94601 16994 ft 363 kts 188°
2026-04-21 03:00 40.19711 -111.95002 17524 ft 366 kts 188°
2026-04-21 03:00 40.17168 -111.95406 18056 ft 369 kts 188°
2026-04-21 03:00 40.14611 -111.95809 18519 ft 372 kts 188°
2026-04-21 03:01 40.12034 -111.96211 18939 ft 375 kts 188°
2026-04-21 03:01 40.09435 -111.96603 19344 ft 378 kts 188°
2026-04-21 03:01 40.06808 -111.96988 19734 ft 381 kts 188°
2026-04-21 03:01 40.04162 -111.97372 20127 ft 384 kts 188°
2026-04-21 03:02 40.01492 -111.97755 20512 ft 387 kts 188°
2026-04-21 03:02 39.98804 -111.98136 20905 ft 390 kts 188°
2026-04-21 03:02 39.96088 -111.98524 21294 ft 393 kts 188°
2026-04-21 03:02 39.93358 -111.98915 21676 ft 397 kts 188°
2026-04-21 03:03 39.90607 -111.99315 22061 ft 400 kts 188°
2026-04-21 03:03 39.87833 -111.99725 22428 ft 403 kts 189°
2026-04-21 03:03 39.85037 -112.00139 22804 ft 406 kts 189°
2026-04-21 03:03 39.82221 -112.00554 23170 ft 409 kts 189°
2026-04-21 03:04 39.79376 -112.00967 23516 ft 412 kts 189°
2026-04-21 03:04 39.76515 -112.01385 23831 ft 415 kts 189°
2026-04-21 03:04 39.73645 -112.01804 24153 ft 417 kts 189°
2026-04-21 03:04 39.70750 -112.02225 24481 ft 419 kts 189°
2026-04-21 03:05 39.67853 -112.02645 24811 ft 421 kts 188°
2026-04-21 03:05 39.64942 -112.03067 25129 ft 422 kts 188°
2026-04-21 03:05 39.62016 -112.03492 25446 ft 424 kts 188°
2026-04-21 03:05 39.59071 -112.03922 25758 ft 426 kts 188°
2026-04-21 03:06 39.56115 -112.04352 26072 ft 428 kts 188°
2026-04-21 03:06 39.53148 -112.04780 26377 ft 430 kts 188°
2026-04-21 03:06 39.50170 -112.05211 26680 ft 432 kts 188°
2026-04-21 03:06 39.47182 -112.05640 26983 ft 434 kts 188°
2026-04-21 03:07 39.44170 -112.06071 27286 ft 436 kts 188°
2026-04-21 03:07 39.41146 -112.06501 27579 ft 437 kts 188°
2026-04-21 03:07 39.38115 -112.06929 27871 ft 439 kts 188°
2026-04-21 03:07 39.35071 -112.07355 28164 ft 441 kts 188°
2026-04-21 03:08 39.32017 -112.07783 28435 ft 443 kts 188°
2026-04-21 03:08 39.28947 -112.08215 28705 ft 444 kts 188°
2026-04-21 03:08 39.25873 -112.08651 28963 ft 446 kts 188°
2026-04-21 03:08 39.22778 -112.09091 29241 ft 447 kts 188°
2026-04-21 03:09 39.19680 -112.09531 29506 ft 449 kts 188°
2026-04-21 03:09 39.16574 -112.09995 29771 ft 450 kts 191°
2026-04-21 03:09 39.13530 -112.10915 30017 ft 450 kts 199°
2026-04-21 03:09 39.10639 -112.12453 30231 ft 450 kts 208°
2026-04-21 03:10 39.07917 -112.14436 30504 ft 450 kts 211°
2026-04-21 03:10 39.06085 -112.15788 30718 ft 449 kts 210°
2026-04-21 03:10 39.03363 -112.17780 31026 ft 449 kts 210°
2026-04-21 03:10 39.00641 -112.19757 31326 ft 449 kts 210°
2026-04-21 03:11 38.97921 -112.21723 31616 ft 449 kts 210°
2026-04-21 03:11 38.95194 -112.23694 31922 ft 449 kts 210°
2026-04-21 03:11 38.92475 -112.25665 32218 ft 449 kts 210°
2026-04-21 03:11 38.89758 -112.27641 32511 ft 449 kts 210°
2026-04-21 03:12 38.87045 -112.29612 32827 ft 448 kts 210°
2026-04-21 03:12 38.84335 -112.31578 33092 ft 448 kts 210°
2026-04-21 03:12 38.81626 -112.33543 33372 ft 447 kts 210°
2026-04-21 03:12 38.78916 -112.35508 33669 ft 447 kts 210°
2026-04-21 03:13 38.76221 -112.37465 33939 ft 447 kts 209°
2026-04-21 03:13 38.73513 -112.39429 34009 ft 444 kts 209°
2026-04-21 03:13 38.68187 -112.43270 34001 ft 438 kts 209°
2026-04-21 03:14 38.62874 -112.47082 33990 ft 437 kts 209°
2026-04-21 03:14 38.57579 -112.50884 33988 ft 436 kts 209°
2026-04-21 03:15 38.52306 -112.54674 33987 ft 435 kts 209°
2026-04-21 03:15 38.47028 -112.58454 33993 ft 435 kts 209°
2026-04-21 03:16 38.41758 -112.62217 34004 ft 434 kts 209°
2026-04-21 03:16 38.36489 -112.65985 34009 ft 434 kts 209°
2026-04-21 03:17 38.31227 -112.69742 34008 ft 433 kts 209°
2026-04-21 03:17 38.25972 -112.73481 34008 ft 433 kts 209°
2026-04-21 03:18 38.20716 -112.77216 34002 ft 432 kts 209°
2026-04-21 03:18 38.15458 -112.80942 33994 ft 432 kts 209°
2026-04-21 03:19 38.10205 -112.84661 33985 ft 432 kts 208°
2026-04-21 03:19 38.04959 -112.88374 33982 ft 432 kts 209°
2026-04-21 03:20 37.99710 -112.92082 33995 ft 432 kts 208°
2026-04-21 03:20 37.94457 -112.95784 34015 ft 432 kts 208°
2026-04-21 03:21 37.89206 -112.99476 34043 ft 432 kts 208°
2026-04-21 03:21 37.83952 -113.03157 34069 ft 432 kts 208°
2026-04-21 03:22 37.78697 -113.06838 34096 ft 431 kts 208°
2026-04-21 03:22 37.73480 -113.10593 34101 ft 431 kts 210°
2026-04-21 03:23 37.68314 -113.14422 34104 ft 430 kts 210°
2026-04-21 03:23 37.63146 -113.18243 34099 ft 430 kts 210°
2026-04-21 03:24 37.57973 -113.22028 34078 ft 430 kts 210°
2026-04-21 03:24 37.52794 -113.25801 34053 ft 429 kts 210°
2026-04-21 03:25 37.47624 -113.29560 34024 ft 429 kts 209°
2026-04-21 03:25 37.42458 -113.33311 33992 ft 428 kts 209°
2026-04-21 03:26 37.37301 -113.37056 33969 ft 427 kts 209°
2026-04-21 03:26 37.32162 -113.40784 33963 ft 426 kts 209°
2026-04-21 03:27 37.27025 -113.44497 33964 ft 425 kts 209°
2026-04-21 03:27 37.21904 -113.48188 33967 ft 424 kts 209°
2026-04-21 03:28 37.16793 -113.51874 33973 ft 423 kts 209°
2026-04-21 03:28 37.11688 -113.55551 33981 ft 423 kts 209°
2026-04-21 03:29 37.06593 -113.59211 33979 ft 422 kts 209°
2026-04-21 03:29 37.01503 -113.62868 33973 ft 421 kts 209°
2026-04-21 03:30 36.96427 -113.66507 33963 ft 420 kts 209°
2026-04-21 03:30 36.91350 -113.70131 33941 ft 420 kts 209°
2026-04-21 03:31 36.86278 -113.73749 33920 ft 419 kts 209°
2026-04-21 03:31 36.81215 -113.77361 33907 ft 419 kts 209°
2026-04-21 03:32 36.76157 -113.80966 33889 ft 419 kts 209°
2026-04-21 03:32 36.71090 -113.84566 33886 ft 419 kts 209°
2026-04-21 03:33 36.66031 -113.88162 33885 ft 418 kts 209°
2026-04-21 03:33 36.60941 -113.91775 33882 ft 418 kts 209°
2026-04-21 03:34 36.55882 -113.95351 33876 ft 418 kts 209°
2026-04-21 03:34 36.50856 -113.98901 33871 ft 418 kts 209°
2026-04-21 03:35 36.45761 -114.02491 33871 ft 418 kts 209°
2026-04-21 03:35 36.40736 -114.06030 33859 ft 418 kts 209°
2026-04-21 03:36 36.35681 -114.09584 33855 ft 418 kts 209°
2026-04-21 03:36 36.30624 -114.13142 33851 ft 418 kts 209°
2026-04-21 03:37 36.25564 -114.16696 33842 ft 418 kts 209°
2026-04-21 03:37 36.20467 -114.20264 33836 ft 418 kts 209°
2026-04-21 03:38 36.15398 -114.23800 33836 ft 418 kts 210°
2026-04-21 03:38 36.10333 -114.27364 33838 ft 419 kts 213°
2026-04-21 03:39 36.06015 -114.32072 33835 ft 418 kts 228°
2026-04-21 03:39 36.02157 -114.37455 33829 ft 418 kts 227°
2026-04-21 03:40 35.98249 -114.42856 33823 ft 419 kts 227°
2026-04-21 03:40 35.94392 -114.48189 33845 ft 419 kts 228°
2026-04-21 03:41 35.90502 -114.53565 33861 ft 419 kts 228°
2026-04-21 03:41 35.86613 -114.58929 33879 ft 420 kts 228°
2026-04-21 03:42 35.82720 -114.64282 33895 ft 420 kts 228°
2026-04-21 03:42 35.78822 -114.69638 33909 ft 420 kts 228°
2026-04-21 03:43 35.74921 -114.74984 33917 ft 420 kts 228°
2026-04-21 03:43 35.71017 -114.80338 33925 ft 420 kts 228°
2026-04-21 03:44 35.67101 -114.85687 33925 ft 421 kts 228°
2026-04-21 03:44 35.63179 -114.91043 33933 ft 421 kts 228°
2026-04-21 03:45 35.59266 -114.96401 33934 ft 421 kts 228°
2026-04-21 03:45 35.55318 -115.01798 33944 ft 422 kts 228°
2026-04-21 03:46 35.51392 -115.07148 33948 ft 422 kts 228°
2026-04-21 03:46 35.48106 -115.11564 33949 ft 422 kts 227°
2026-04-21 03:47 35.44077 -115.16800 33966 ft 422 kts 226°
2026-04-21 03:47 35.40044 -115.22017 33969 ft 421 kts 226°
2026-04-21 03:48 35.36025 -115.27239 33972 ft 421 kts 226°
2026-04-21 03:48 35.32017 -115.32456 33976 ft 420 kts 226°
2026-04-21 03:49 35.28015 -115.37655 33976 ft 418 kts 226°
2026-04-21 03:49 35.24048 -115.42803 33980 ft 414 kts 226°
2026-04-21 03:50 35.20103 -115.47912 33970 ft 411 kts 226°
2026-04-21 03:50 35.16183 -115.52977 33959 ft 409 kts 226°
2026-04-21 03:51 35.12253 -115.58059 33947 ft 408 kts 226°
2026-04-21 03:51 35.08380 -115.63036 33939 ft 406 kts 226°
2026-04-21 03:52 35.04476 -115.68017 33926 ft 405 kts 226°
2026-04-21 03:52 35.00588 -115.72976 33917 ft 404 kts 226°
2026-04-21 03:53 34.96673 -115.77967 33900 ft 404 kts 226°
2026-04-21 03:53 34.92787 -115.82904 33887 ft 403 kts 226°
2026-04-21 03:54 34.88906 -115.87840 33879 ft 403 kts 226°
2026-04-21 03:54 34.85029 -115.92770 33872 ft 403 kts 226°
2026-04-21 03:55 34.81148 -115.97693 33866 ft 403 kts 226°
2026-04-21 03:55 34.77259 -116.02601 33867 ft 403 kts 226°
2026-04-21 03:56 34.73383 -116.07517 33860 ft 403 kts 226°
2026-04-21 03:56 34.69521 -116.12452 33861 ft 403 kts 226°
2026-04-21 03:57 34.65834 -116.17152 33861 ft 403 kts 226°
2026-04-21 03:57 34.62241 -116.21716 33862 ft 403 kts 226°
2026-04-21 03:58 34.58366 -116.26631 33865 ft 403 kts 226°
2026-04-21 03:58 34.54494 -116.31537 33867 ft 403 kts 226°
2026-04-21 03:59 34.50600 -116.36463 33238 ft 407 kts 226°
2026-04-21 03:59 34.48639 -116.38941 32756 ft 407 kts 225°
2026-04-21 04:00 34.44692 -116.43915 31722 ft 412 kts 225°
2026-04-21 04:00 34.42726 -116.46454 31194 ft 415 kts 229°
2026-04-21 04:00 34.41048 -116.49317 30657 ft 419 kts 238°
2026-04-21 04:00 34.39714 -116.52470 30068 ft 423 kts 242°
2026-04-21 04:01 34.38409 -116.55675 29423 ft 425 kts 242°
2026-04-21 04:01 34.37096 -116.58882 28846 ft 425 kts 241°
2026-04-21 04:01 34.35780 -116.62074 28280 ft 421 kts 241°
2026-04-21 04:01 34.34478 -116.65222 27722 ft 417 kts 241°
2026-04-21 04:02 34.33181 -116.68351 27169 ft 413 kts 244°
2026-04-21 04:02 34.31929 -116.71427 26856 ft 403 kts 241°
2026-04-21 04:02 34.30713 -116.74451 26331 ft 397 kts 242°
2026-04-21 04:02 34.29513 -116.77451 25654 ft 394 kts 241°
2026-04-21 04:03 34.28327 -116.80414 25089 ft 389 kts 242°
2026-04-21 04:03 34.27155 -116.83339 24603 ft 384 kts 241°
2026-04-21 04:03 34.25994 -116.86230 24129 ft 381 kts 241°
2026-04-21 04:03 34.24836 -116.89104 23678 ft 378 kts 241°
2026-04-21 04:04 34.23685 -116.91946 23192 ft 375 kts 241°
2026-04-21 04:04 34.22548 -116.94753 22763 ft 369 kts 241°
2026-04-21 04:04 34.21435 -116.97516 22340 ft 363 kts 242°
2026-04-21 04:04 34.20554 -117.00370 21929 ft 361 kts 249°
2026-04-21 04:05 34.19785 -117.03237 21505 ft 357 kts 248°
2026-04-21 04:05 34.19019 -117.06074 21088 ft 354 kts 248°
2026-04-21 04:05 34.18254 -117.08891 20662 ft 352 kts 248°
2026-04-21 04:05 34.17494 -117.11690 20231 ft 350 kts 248°
2026-04-21 04:06 34.16740 -117.14474 19794 ft 348 kts 248°
2026-04-21 04:06 34.15986 -117.17247 19350 ft 347 kts 248°
2026-04-21 04:06 34.15229 -117.20007 18909 ft 346 kts 248°
2026-04-21 04:06 34.14470 -117.22754 18461 ft 346 kts 248°
2026-04-21 04:07 34.13708 -117.25511 17920 ft 346 kts 248°
2026-04-21 04:07 34.12956 -117.28235 17440 ft 339 kts 248°
2026-04-21 04:07 34.12213 -117.30919 17013 ft 336 kts 248°
2026-04-21 04:07 34.11476 -117.33584 16589 ft 334 kts 248°
2026-04-21 04:08 34.10742 -117.36235 16170 ft 332 kts 248°
2026-04-21 04:08 34.10024 -117.38877 15736 ft 330 kts 249°
2026-04-21 04:08 34.09351 -117.41515 15315 ft 329 kts 250°
2026-04-21 04:08 34.08700 -117.44157 14900 ft 328 kts 250°
2026-04-21 04:09 34.08057 -117.46783 14492 ft 327 kts 250°
2026-04-21 04:09 34.07413 -117.49410 14078 ft 326 kts 251°
2026-04-21 04:09 34.06763 -117.52025 13669 ft 324 kts 250°
2026-04-21 04:09 34.06116 -117.54586 13385 ft 316 kts 250°
2026-04-21 04:10 34.05474 -117.57106 12804 ft 313 kts 250°
2026-04-21 04:10 34.04833 -117.59603 12189 ft 311 kts 250°
2026-04-21 04:10 34.04193 -117.62093 11678 ft 312 kts 250°
2026-04-21 04:10 34.03550 -117.64595 11200 ft 313 kts 250°
2026-04-21 04:11 34.02903 -117.67104 10732 ft 314 kts 249°
2026-04-21 04:11 34.02277 -117.69613 10327 ft 313 kts 253°
2026-04-21 04:11 34.01980 -117.72199 10104 ft 306 kts 260°
2026-04-21 04:11 34.01752 -117.74692 9980 ft 295 kts 259°
2026-04-21 04:12 34.01515 -117.77126 9737 ft 289 kts 259°
2026-04-21 04:12 34.01282 -117.79476 9583 ft 274 kts 259°
2026-04-21 04:12 34.01065 -117.81686 9381 ft 256 kts 259°
2026-04-21 04:12 34.00867 -117.83734 9158 ft 239 kts 259°
2026-04-21 04:13 34.00674 -117.85701 8681 ft 235 kts 259°
2026-04-21 04:13 34.00479 -117.87650 8238 ft 235 kts 259°
2026-04-21 04:13 34.00283 -117.89607 7909 ft 234 kts 259°
2026-04-21 04:13 34.00089 -117.91553 7615 ft 234 kts 260°
2026-04-21 04:14 33.99895 -117.93495 7322 ft 233 kts 260°
2026-04-21 04:14 33.99704 -117.95432 7035 ft 233 kts 260°
2026-04-21 04:14 33.99512 -117.97388 6741 ft 232 kts 261°
2026-04-21 04:14 33.99328 -117.99273 6468 ft 225 kts 261°
2026-04-21 04:15 33.99150 -118.01090 6179 ft 214 kts 261°
2026-04-21 04:15 33.98978 -118.02827 5909 ft 203 kts 261°
2026-04-21 04:15 33.98813 -118.04487 5654 ft 197 kts 261°
2026-04-21 04:15 33.98648 -118.06134 5405 ft 195 kts 261°
2026-04-21 04:16 33.98488 -118.07726 5174 ft 194 kts 261°
2026-04-21 04:16 33.98327 -118.09332 4932 ft 193 kts 261°
2026-04-21 04:16 33.98164 -118.10928 4815 ft 192 kts 261°
2026-04-21 04:16 33.98002 -118.12529 4612 ft 192 kts 261°
2026-04-21 04:17 33.97843 -118.14117 4375 ft 191 kts 261°
2026-04-21 04:17 33.97684 -118.15700 4132 ft 190 kts 261°
2026-04-21 04:17 33.97526 -118.17280 3883 ft 190 kts 261°
2026-04-21 04:17 33.97368 -118.18857 3636 ft 190 kts 262°
2026-04-21 04:18 33.97213 -118.20403 3395 ft 189 kts 262°
2026-04-21 04:18 33.97055 -118.21978 3146 ft 189 kts 263°
2026-04-21 04:18 33.96898 -118.23539 2894 ft 187 kts 263°
2026-04-21 04:18 33.96742 -118.25089 2641 ft 186 kts 263°
2026-04-21 04:19 33.96587 -118.26625 2401 ft 184 kts 263°
2026-04-21 04:19 33.96433 -118.28151 2156 ft 181 kts 262°
2026-04-21 04:19 33.96287 -118.29595 1936 ft 162 kts 263°
2026-04-21 04:19 33.96156 -118.30882 1714 ft 149 kts 263°
2026-04-21 04:20 33.96033 -118.32097 1510 ft 144 kts 263°
2026-04-21 04:20 33.95912 -118.33289 1321 ft 143 kts 263°
2026-04-21 04:20 33.95792 -118.34469 1127 ft 142 kts 263°
2026-04-21 04:20 33.95673 -118.35645 934 ft 141 kts 263°
2026-04-21 04:21 33.95564 -118.36813 740 ft 140 kts 262°
2026-04-21 04:21 33.95441 -118.37977 550 ft 141 kts 262°
2026-04-21 04:21 33.95321 -118.39138 352 ft 138 kts 263°
2026-04-21 04:21 33.95205 -118.40271 170 ft 136 kts 263°
2026-04-21 04:22 33.95094 -118.41340 121 ft 112 kts 264°
2026-04-21 04:22 33.95019 -118.42047 122 ft 60 kts 262°
2026-04-21 04:22 33.94984 -118.42373 126 ft 31 kts 262°
2026-04-21 04:22 33.94939 -118.42535 124 ft 18 kts 241°
2026-04-21 04:23 33.94874 -118.42652 121 ft 12 kts 230°
2026-04-21 04:23 33.94853 -118.42679 124 ft 1 kts 224°
2026-04-21 04:23 33.94850 -118.42682 124 ft 0 kts 224°
2026-04-21 04:24 33.94835 -118.42699 125 ft 10 kts 223°
2026-04-21 04:24 33.94783 -118.42747 123 ft 16 kts 210°
2026-04-21 04:24 33.94678 -118.42780 123 ft 15 kts 174°
2026-04-21 04:24 33.94637 -118.42692 126 ft 13 kts 85°
2026-04-21 04:25 33.94645 -118.42590 123 ft 11 kts 83°
2026-04-21 04:25 33.94655 -118.42503 126 ft 10 kts 83°
2026-04-21 04:25 33.94663 -118.42424 124 ft 11 kts 83°
2026-04-21 04:25 33.94679 -118.42281 126 ft 21 kts 83°
2026-04-21 04:26 33.94697 -118.42112 126 ft 20 kts 83°
2026-04-21 04:26 33.94713 -118.41953 126 ft 18 kts 83°
2026-04-21 04:26 33.94729 -118.41805 122 ft 17 kts 83°
2026-04-21 04:26 33.94743 -118.41667 126 ft 16 kts 83°
2026-04-21 04:27 33.94747 -118.41626 121 ft 15 kts 83°
2026-04-21 04:27 33.94800 -118.41234 126 ft 20 kts 83°
2026-04-21 04:27 33.94817 -118.41074 126 ft 19 kts 82°
2026-04-21 04:28 33.94833 -118.40924 124 ft 17 kts 84°
2026-04-21 04:28 33.94845 -118.40785 126 ft 16 kts 83°
2026-04-21 04:28 33.94859 -118.40657 126 ft 15 kts 82°
2026-04-21 04:28 33.94819 -118.40594 123 ft 10 kts 173°
2026-04-21 04:29 33.94754 -118.40580 123 ft 9 kts 170°
2026-04-21 04:29 33.94697 -118.40560 123 ft 8 kts 144°
2026-04-21 04:29 33.94672 -118.40510 125 ft 6 kts 117°
2026-04-21 04:29 33.94663 -118.40489 122 ft 0 kts 118°